User: anonymous   Login
Location: New Frontier Mobile Home Park
(32.8448°N, 116.9675°W)
Time: 22:33:28
(UTC+00:00)
Language:

Cosmos 1975 Rocket - Orbit

View from above orbital plane
View from above orbital plane
View from above satellite
View from above satellite

Ground track
Ground track

The orbit data is extracted from the following two-line orbital elements,

1 19574U 88093B   20270.15405764  .00000075  00000-0  61021-5 0  9994
2 19574  82.5289 105.8898 0022820 127.5060  11.6572 14.83337865726887
Epoch (UTC): 26 September 2020 03:41:50
Eccentricity: 0.0022820
inclination: 82.5289°
perigee height: 603 km
apogee height: 635 km
right ascension of ascending node: 105.8898°
argument of perigee: 127.5060°
revolutions per day: 14.83337865
mean anomaly at epoch: 11.6572°
orbit number at epoch: 72688

The dashed part of the orbit path shows where the satellite is in the earth's shadow,  

DLR